This is the latest recevied weather packets stored in our database for station/object AC4AG. If no packets are shown the sender has not sent any weather packets the latest 10 day(s).
| Time | Temp. | Humidity | Pressure | Rain* | Wind** | Luminosity | Snow |
|---|---|---|---|---|---|---|---|
| 1777290825 | 12.78° C | 96% | 1016.9 hPa | 0 mm | - | 80 W/m² | - |
| 1777290522 | 12.78° C | 96% | 1016.8 hPa | 0 mm | - | 71 W/m² | - |
| 1777290218 | 12.78° C | 96% | 1016.5 hPa | 0 mm | - | 65 W/m² | - |
| 1777289915 | 12.22° C | 97% | 1016.7 hPa | 0 mm | - | 60 W/m² | - |
| 1777289611 | 12.22° C | 98% | 1016.7 hPa | 0 mm | - | 52 W/m² | - |
| 1777289306 | 11.67° C | 98% | 1016.8 hPa | 0 mm | - | 43 W/m² | - |
| 1777289003 | 11.67° C | 99% | 1016.8 hPa | 0 mm | - | 33 W/m² | - |
| 1777288700 | 11.67° C | 98% | 1016.8 hPa | 0 mm | - | 27 W/m² | - |
| 1777288397 | 11.67° C | 98% | 1016.8 hPa | 0 mm | - | 20 W/m² | - |
| 1777288093 | 11.67° C | 98% | 1016.8 hPa | 0 mm | - | 15 W/m² | - |
| 1777287790 | 11.67° C | 98% | 1016.7 hPa | 0 mm | - | 9 W/m² | - |
| 1777287487 | 11.67° C | 98% | 1016.2 hPa | 0 mm | - | 7 W/m² | - |
| 1777287181 | 11.67° C | 97% | 1016.5 hPa | 0 mm | - | 4 W/m² | - |
| 1777286879 | 11.67° C | 97% | 1016.2 hPa | 0 mm | - | 2 W/m² | - |
| 1777286577 | 11.67° C | 98% | 1016.2 hPa | 0 mm | - | 1 W/m² | - |
| 1777286274 | 11.67° C | 98% | 1015.9 hPa | 0 mm | - | 0 W/m² | - |
| 1777285971 | 11.67° C | 98% | 1016 hPa | 0 mm | - | 0 W/m² | - |
| 1777285668 | 11.67° C | 98% | 1016 hPa | 0 mm | - | 0 W/m² | - |
| 1777285366 | 11.67° C | 98% | 1016.2 hPa | 0 mm | - | 0 W/m² | - |
| 1777285062 | 11.67° C | 98% | 1016 hPa | 0 mm | - | 0 W/m² | - |
| 1777284760 | 11.67° C | 99% | 1016.2 hPa | 0 mm | - | 0 W/m² | - |
| 1777284457 | 11.67° C | 99% | 1016.4 hPa | 0 mm | - | 0 W/m² | - |
| 1777284153 | 11.67° C | 99% | 1016.2 hPa | 0 mm | - | 0 W/m² | - |
| 1777283851 | 11.67° C | 99% | 1016 hPa | 0 mm | - | 0 W/m² | - |
| 1777283547 | 11.67° C | 99% | 1016.2 hPa | 0 mm | - | 0 W/m² | - |
* Rain latest hour (hover to see other rain measurements)
** Current wind speed in m/s (hover to see current wind gust speed)